Home   Weather   Buenos Aires   Past weeks

Flag for Argentina Past Weather in Buenos Aires, Argentina — Yesterday and Last 2 Weeks

Now
52 °F

Clear.


Feels Like: 52 °F
Forecast: 47 / 59 °F
Wind: 2 mph from South

Location: Buenos Aires Airport

Current Time: May 30, 2017 at 4:20:12 am

Latest Report: May 30, 2017 at 4:00 am


Visibility: 10 mi

Pressure: 30.30 "Hg

Humidity: 77%

Dew Point: 45 °F

Location of Buenos AiresLocation

Past Weather in Buenos Aires — Graph

°F

Buenos Aires Temperature Yesterday

Maximum temperature yesterday: 61 °F (at 1:00 pm)
Minimum temperature yesterday: 52 °F (at 7:00 am)
Average temperature yesterday: 56 °F

High & Low Weather Summary for the Past Weeks

 TemperatureHumidityPressure
High70 °F (May 15, 4:00 pm)100% (May 19, 6:00 am)30.42 "Hg (May 19, 6:00 am)
Low48 °F (May 27, 8:00 am)34% (May 26, 3:00 pm)29.62 "Hg (May 19, 5:00 am)
Average59 °F79%30.00 "Hg
* Reported May 15 3:00 am — May 30 3:00 am, Buenos Aires. Weather by CustomWeather, © 2017

Note: Actual official high and low records may vary slightly from our data, if they occured in-between our weather recording intervals... More about our weather records

Advertising

Buenos Aires Weather History for the Previous 24 Hours

Scroll right to see more
 ConditionsComfort  
Time TempWeatherWind HumidityBarometerVisibility
3:00 am
Tue, May 30
54 °FPassing clouds.3 mph72%30.30 "HgN/A
2:00 am54 °FPassing clouds.3 mph72%30.30 "HgN/A
1:00 am54 °FPassing clouds.3 mph77%30.30 "HgN/A
12:00 am55 °FPassing clouds.2 mph72%30.30 "HgN/A
11:00 pm
Mon, May 29
57 °FPassing clouds.3 mph67%30.30 "HgN/A
10:00 pm57 °FPassing clouds.3 mph67%30.30 "HgN/A
9:00 pm57 °FPassing clouds.5 mph67%30.27 "HgN/A
8:00 pm57 °FPassing clouds.3 mph67%30.27 "HgN/A
7:00 pm59 °FPassing clouds.3 mph68%30.27 "HgN/A
6:00 pm59 °FPassing clouds.5 mph68%30.24 "HgN/A
5:00 pm59 °FScattered clouds.7 mph72%30.24 "HgN/A
4:00 pm61 °FScattered clouds.8 mph68%30.24 "HgN/A
3:00 pm61 °FScattered clouds.10 mph63%30.21 "HgN/A
2:00 pm59 °FPartly sunny.12 mph72%30.24 "HgN/A
1:00 pm61 °FPartly sunny.3 mph68%30.27 "Hg6 mi
12:00 pm59 °FScattered clouds.2 mph77%30.27 "HgN/A
11:00 am59 °FPassing clouds.2 mph77%30.27 "HgN/A
10:00 am54 °FBroken clouds.5 mph94%30.27 "Hg6 mi
9:00 am52 °FFog.3 mph94%30.27 "Hg3 mi
8:39 am52 °FFog.3 mph94%30.27 "Hg2 mi
8:00 am52 °FFog.5 mph94%30.24 "Hg0 mi
7:00 am52 °FClear.3 mph88%30.24 "Hg5 mi
6:00 am54 °FPassing clouds.3 mph88%30.21 "HgN/A
5:00 am54 °FPassing clouds.5 mph88%30.21 "HgN/A
4:00 am54 °FPassing clouds.6 mph88%30.21 "HgN/A
Weather by CustomWeather, © 2017

See weather overviewHow to use our weather pages